Wind_Speed
47 51 52 49 45 45 48 49 49 49 49 52 53 52 53 53 53 51 50 49 49 52 51 49 49 49 49 48 47 48 47 45 44 42 41 38 36 36 36 35 36 37 38 39 39 39 38 38 38 38 38 37 36 35 34 33 32 31 29 28 27 27 28 28 29 28 28 29 29 30 30 32 33 35 36 38 38 38 38 39 39 39 41 43 43 44
49 52 53 49 46 46 49 50 51 51 51 52 53 54 54 54 54 53 52 52 50 52 53 52 53 53 51 51 50 51 50 49 47 44 42 40 38 37 37 37 37 37 38 38 38 38 38 37 37 36 36 36 36 36 36 35 34 33 31 29 27 27 28 28 28 28 27 28 28 28 29 30 32 33 35 36 37 39 39 39 40 40 41 42 43 44
51 53 52 50 48 49 50 50 52 53 53 53 53 55 56 55 55 55 55 55 54 54 55 55 56 55 55 55 55 55 53 50 50 49 45 42 40 38 37 38 37 37 37 38 38 38 37 36 35 35 36 37 37 37 37 37 36 35 32 30 28 27 28 28 28 27 27 26 26 26 28 29 30 32 33 35 36 38 39 40 41 41 41 42 43 44
53 54 53 49 48 50 51 51 52 53 54 54 54 56 57 56 56 57 57 57 57 56 56 57 57 57 57 58 58 59 59 54 52 54 53 50 47 42 40 39 38 38 38 38 38 37 37 36 36 37 38 39 38 38 38 38 38 36 33 30 29 28 28 28 28 28 28 27 27 28 29 29 30 31 32 34 36 37 39 41 42 43 43 44 44 45
53 55 55 52 51 52 53 53 52 53 54 55 55 56 56 55 57 59 59 59 60 59 59 59 59 59 59 62 61 59 61 59 56 58 59 59 57 52 48 44 40 39 38 38 38 38 38 38 39 40 40 41 41 40 39 39 38 36 34 33 31 31 30 31 31 31 30 30 31 32 32 32 32 32 32 33 35 36 38 40 41 43 45 46 47 47
52 52 52 53 53 52 53 52 51 52 54 55 55 55 55 56 58 59 60 60 61 61 62 61 60 60 60 62 63 61 60 60 61 62 59 59 61 59 56 52 46 41 38 38 38 38 38 39 40 41 42 43 43 42 41 40 39 37 37 36 35 34 34 34 34 34 34 33 33 33 33 34 34 34 34 34 35 35 36 38 40 42 44 45 47 48
50 49 49 51 52 52 52 51 51 53 55 55 55 54 55 57 57 58 59 60 61 61 62 62 62 62 61 60 61 62 61 59 61 64 61 58 60 59 57 51 45 40 37 37 37 37 37 37 38 39 41 43 44 43 42 41 40 39 38 38 38 37 37 36 36 35 35 34 34 34 34 34 34 34 35 35 36 37 37 38 39 41 42 44 46 48
48 48 49 50 51 52 52 51 51 52 54 55 54 53 53 54 55 56 57 58 59 60 60 61 61 61 60 58 58 59 60 60 59 61 61 59 57 57 53 43 38 37 34 33 35 35 38 38 38 38 39 42 44 44 44 42 41 40 40 40 39 39 39 38 38 37 37 38 38 37 37 36 35 35 35 36 36 37 38 39 41 42 43 44 45 47
47 47 48 49 49 49 49 50 50 50 51 52 52 52 51 51 52 53 55 56 57 58 60 59 57 58 57 55 56 57 58 59 59 59 59 58 54 51 48 41 34 32 30 33 34 33 34 38 39 39 39 42 44 45 46 45 44 43 43 43 43 42 42 42 42 42 42 43 42 41 40 39 38 38 37 37 37 37 38 39 40 42 44 45 46 47
48 47 48 48 48 47 48 48 49 48 49 49 48 50 50 51 52 52 54 54 55 57 58 56 54 55 56 54 55 58 58 58 58 58 56 55 55 50 45 41 35 30 31 38 41 36 31 34 38 40 41 42 44 46 48 49 49 48 48 49 50 49 48 47 47 47 47 46 45 44 43 42 41 41 40 40 39 39 39 39 41 42 44 46 47 49
48 48 49 48 47 47 47 47 47 47 47 46 47 49 50 52 52 54 55 54 55 57 57 55 54 54 55 55 55 56 57 56 56 57 53 50 50 46 43 43 41 38 40 45 48 44 36 32 34 39 42 44 46 47 50 52 53 54 55 56 55 55 54 52 51 50 49 49 49 48 47 46 45 44 43 43 42 43 43 43 43 44 45 47 48 50
50 50 50 49 47 47 48 47 47 47 46 47 48 49 51 52 54 55 56 55 55 56 55 55 55 55 55 55 54 54 55 55 55 55 52 49 44 38 39 46 46 45 48 50 50 47 40 34 34 39 43 45 47 49 52 54 57 59 61 60 58 56 55 54 54 53 52 52 52 52 51 50 48 47 46 45 45 46 47 48 47 47 47 48 49 51
54 53 52 51 50 49 49 49 49 48 48 48 48 49 51 52 53 55 56 56 55 55 55 55 55 57 57 55 53 52 53 54 53 54 53 52 49 43 43 50 51 50 51 51 49 47 46 42 38 40 44 47 48 50 53 55 58 60 61 60 58 56 55 55 55 56 56 56 56 55 54 53 51 50 49 48 48 49 51 53 53 51 50 51 52 53
61 59 56 53 52 51 50 48 49 49 49 49 48 48 50 51 53 55 55 55 56 56 57 56 56 58 58 56 54 51 51 52 52 54 55 55 56 53 51 53 54 54 54 53 50 50 52 51 47 46 47 49 50 51 52 54 56 58 59 59 58 57 57 58 58 59 60 60 59 58 56 54 54 53 52 51 51 52 54 56 57 55 53 53 54 55
61 60 58 56 54 52 50 48 47 48 49 49 48 48 49 50 51 53 54 55 56 58 57 55 57 58 56 55 55 53 53 54 54 56 56 56 57 58 59 59 59 59 59 57 55 55 58 60 59 58 56 55 56 56 56 56 56 57 59 60 60 61 61 62 62 63 62 62 60 59 58 56 55 55 54 54 55 56 57 58 59 59 57 56 56 57
55 55 55 56 53 50 48 47 47 48 49 50 49 50 50 49 50 53 56 57 58 60 59 56 58 58 55 55 56 56 57 58 57 59 59 59 59 60 63 64 64 63 62 62 62 62 64 66 66 65 63 61 60 61 61 62 62 63 63 64 65 66 66 66 65 64 64 63 62 61 60 59 58 57 57 58 58 59 60 61 62 62 61 59 58 58
51 51 51 52 52 49 47 47 48 48 50 52 52 52 53 52 53 56 59 59 59 63 63 59 60 60 58 59 58 58 61 61 61 63 63 64 64 65 67 68 68 67 66 66 66 67 69 70 70 70 68 66 64 64 64 65 66 68 68 68 69 69 70 70 69 68 66 66 65 65 65 63 62 61 61 61 62 62 63 64 65 64 63 62 60 60
52 52 51 51 53 53 52 52 53 53 54 55 55 54 54 56 57 57 59 59 61 65 65 63 63 64 63 64 63 63 65 65 65 66 67 67 67 68 70 70 71 71 71 69 66 65 67 69 70 70 70 69 68 67 68 68 69 70 72 73 74 74 74 74 74 73 72 69 68 67 66 65 64 64 63 64 64 64 66 67 67 67 66 65 63 63
55 56 53 52 56 58 56 56 57 57 55 54 52 52 52 54 56 55 57 59 60 62 63 61 62 64 65 64 61 62 65 67 67 66 66 67 67 68 71 72 72 72 72 70 67 65 67 69 69 70 70 70 71 71 72 73 74 75 75 77 77 78 78 78 78 78 77 75 71 68 67 66 66 65 65 66 66 67 68 69 70 70 69 68 67 65
56 58 57 55 57 59 57 57 57 54 53 53 52 53 53 53 54 53 53 54 56 58 58 57 58 59 59 58 56 57 62 66 65 62 62 64 65 66 67 68 68 67 68 69 69 71 72 73 73 73 73 72 72 73 74 74 76 77 77 78 78 79 79 78 78 77 76 75 73 70 68 67 67 67 68 69 69 70 71 72 72 73 73 72 71 69
54 56 57 57 58 59 58 56 53 50 50 50 50 50 51 51 50 50 51 50 51 54 54 54 56 53 50 49 51 53 56 60 59 57 57 59 61 63 63 63 63 63 64 66 68 70 71 72 74 75 75 76 75 75 75 75 75 75 76 76 77 77 76 75 74 73 72 71 70 69 68 68 67 67 68 68 69 70 71 72 72 73 74 74 74 73
54 54 55 55 56 58 57 53 50 49 48 47 45 44 45 47 47 48 51 51 49 53 53 53 57 55 48 46 48 49 50 53 54 54 54 54 55 59 61 62 63 63 64 66 68 70 71 73 74 75 77 79 80 80 79 78 77 75 75 75 75 75 76 76 75 74 73 71 70 68 67 67 67 67 67 67 68 70 70 71 73 74 74 75 75 76
55 55 55 54 53 54 54 52 51 51 49 48 47 45 45 47 47 48 53 55 54 56 56 55 59 58 50 45 45 46 46 48 52 55 56 55 56 59 61 63 64 64 65 67 70 72 75 76 78 78 79 80 80 81 81 80 78 77 77 76 77 77 77 78 78 78 78 77 75 73 71 70 70 69 68 67 68 69 71 72 74 76 76 76 76 77
54 54 55 55 52 52 53 52 53 53 52 52 51 50 49 50 50 51 55 57 57 57 55 54 58 59 54 50 48 48 49 50 52 55 57 58 60 61 62 63 64 66 67 70 72 75 77 79 79 79 79 79 79 79 79 80 80 80 81 81 82 81 81 80 79 79 78 78 78 77 77 76 76 75 74 73 71 71 72 73 75 76 76 76 77 78
53 54 54 54 54 55 54 53 54 55 52 50 49 48 50 50 49 51 53 54 57 58 56 57 61 62 61 58 57 57 57 58 58 60 62 64 66 67 68 68 69 71 74 76 78 80 81 82 83 83 83 83 83 82 81 80 80 81 82 83 84 84 83 83 82 81 80 78 78 78 78 78 78 78 79 79 78 77 76 76 76 76 76 76 77 78
55 55 55 56 58 59 58 56 55 55 55 54 52 51 53 53 53 54 55 58 62 64 63 64 66 67 64 62 61 63 64 66 67 68 67 67 68 70 72 73 74 76 79 82 82 82 82 83 83 85 86 87 87 86 83 81 81 82 84 84 84 83 83 83 83 83 83 82 81 80 79 78 78 78 79 80 82 82 82 81 81 80 80 80 80 81
56 57 56 58 60 60 60 59 57 58 61 62 61 60 59 59 59 61 63 66 68 69 68 67 66 66 63 61 61 63 65 68 70 72 73 73 73 75 77 80 82 83 83 82 80 78 77 78 79 80 82 83 83 83 83 84 87 90 92 92 90 89 88 87 87 87 87 86 86 85 84 82 80 79 78 79 81 82 84 85 85 85 85 85 86 86
58 59 58 58 61 61 61 61 59 60 63 65 64 63 61 60 61 63 66 69 69 72 73 71 68 69 68 66 67 68 69 71 72 72 73 73 74 76 78 79 80 78 76 74 75 76 79 81 83 84 85 86 87 88 90 93 96 98 98 98 97 96 96 95 94 93 93 92 92 91 90 89 87 85 83 82 82 82 83 84 84 85 86 86 87 88
60 61 58 59 61 61 60 61 60 62 64 64 65 64 62 61 62 63 66 69 69 73 75 72 70 73 74 73 75 76 77 79 79 78 77 76 77 78 79 79 77 76 77 80 84 89 92 93 93 93 94 95 96 97 99 99 99 98 98 97 97 97 98 98 97 97 97 97 96 96 95 95 94 93 92 91 90 89 88 87 87 87 87 88 88 88
60 61 60 61 63 61 60 60 61 63 65 65 64 64 64 64 65 66 67 68 69 72 73 72 73 75 74 74 76 78 79 81 82 83 85 85 86 87 88 88 88 89 91 94 97 99 100 99 98 97 97 98 98 98 98 97 96 95 94 94 95 95 96 96 96 96 96 97 97 97 97 97 97 96 96 95 95 94 93 93 92 92 92 93 92 92
61 62 62 63 65 64 62 62 62 64 66 67 66 66 66 67 68 68 68 68 70 73 73 74 77 78 76 76 78 79 80 81 83 84 85 87 89 90 91 92 93 95 96 97 98 98 97 97 97 96 96 96 95 94 93 92 92 91 91 92 92 93 94 94 94 94 94 94 95 95 96 96 96 96 95 94 93 93 93 94 94 95 96 97 97 97
61 62 63 64 67 67 65 64 66 67 68 70 70 68 68 68 70 70 70 71 73 75 76 77 80 81 80 81 82 83 83 83 84 85 86 87 89 91 92 93 93 94 94 94 95 95 95 94 94 92 91 91 90 90 89 89 89 90 91 91 93 94 94 95 95 95 95 96 96 96 96 96 96 96 96 95 95 95 96 97 98 98 98 98 99 100
61 63 64 65 69 70 67 67 69 70 72 74 72 70 69 70 72 74 75 76 77 78 80 82 83 83 84 84 85 85 86 86 86 86 87 87 89 91 92 92 92 92 92 92 92 92 91 91 90 90 89 89 89 90 90 91 92 92 93 94 95 96 97 98 98 98 99 99 100 100 100 100 100 99 99 99 99 100 101 103 104 104 103 102 102 102
64 65 66 67 71 72 70 70 73 75 77 77 73 71 72 73 77 80 81 81 82 83 84 84 84 84 83 84 85 86 86 86 86 86 86 87 88 89 89 89 89 89 89 89 89 89 89 90 90 91 91 92 92 93 93 94 94 95 96 96 96 97 99 100 101 102 103 103 104 105 105 105 105 105 105 105 105 106 107 108 109 108 108 107 106 106
66 67 68 69 72 74 73 73 77 81 80 78 76 76 76 79 82 83 84 84 84 84 84 84 83 81 79 80 82 83 83 83 83 82 81 81 83 84 84 84 84 85 85 85 86 87 88 89 90 91 91 92 93 93 93 94 95 95 96 96 97 98 99 101 102 103 104 105 106 107 108 108 109 109 109 109 110 110 110 110 110 110 111 110 110 110
66 67 69 70 72 75 76 77 82 84 82 81 81 81 81 82 84 84 84 86 85 83 82 81 79 77 76 76 76 77 77 77 78 77 75 75 76 78 78 79 79 80 80 81 82 83 85 86 87 88 89 89 90 91 92 93 94 94 95 96 97 97 98 99 100 101 103 104 105 106 107 107 108 108 108 109 109 109 109 108 108 109 109 110 110 111
68 69 71 73 75 76 78 80 84 86 86 85 84 83 83 82 81 81 81 82 81 80 80 77 74 73 73 72 72 72 72 72 72 70 69 70 71 72 73 73 74 75 76 76 77 77 78 80 81 82 83 84 85 87 88 89 90 91 92 92 93 93 94 95 95 96 98 99 100 101 101 102 102 102 103 103 104 104 104 105 105 105 106 107 107 108
70 71 73 75 77 78 79 81 84 86 87 86 84 83 81 78 76 75 74 75 75 75 74 70 67 67 68 67 67 68 68 68 68 67 66 67 68 69 70 69 68 69 69 70 71 71 72 73 74 75 76 77 77 79 81 82 83 84 85 86 86 87 88 88 89 90 91 92 92 93 93 94 95 96 97 97 97 98 99 100 101 101 102 103 103 104
72 74 75 76 78 79 79 80 82 84 84 83 81 78 74 72 70 67 67 69 69 66 64 63 62 62 63 63 64 65 65 66 66 64 64 64 64 64 65 65 64 64 65 65 66 66 67 67 68 69 70 71 72 73 75 76 77 78 80 80 81 81 82 83 84 86 87 87 87 87 89 90 91 92 93 93 94 95 96 96 97 97 98 99 99 100
75 76 77 78 79 79 79 80 80 79 79 78 75 69 65 64 62 61 63 65 62 58 58 59 59 59 60 60 61 62 62 63 63 62 61 60 60 60 61 63 63 62 62 62 63 63 64 65 66 66 68 69 70 71 73 74 74 76 77 78 79 80 81 82 83 84 85 85 85 86 87 88 89 90 90 91 92 92 93 93 93 94 95 96 96 96
76 77 77 77 78 77 76 76 75 75 75 72 66 61 59 58 57 58 59 58 54 54 55 56 55 55 56 57 59 59 60 60 61 60 59 58 58 58 59 60 61 61 61 62 62 62 63 64 65 66 68 69 71 71 73 74 75 75 76 77 78 79 80 81 82 83 84 84 85 85 86 87 88 89 90 90 91 92 92 92 93 93 94 95 96 96
75 74 75 75 74 73 71 69 69 71 72 66 59 55 55 55 54 54 53 52 52 53 54 54 55 55 56 57 58 58 58 59 59 59 59 59 59 59 60 61 61 61 62 63 63 63 63 64 65 66 68 69 71 72 73 75 76 76 77 78 80 81 82 82 83 85 85 85 86 86 87 88 89 90 91 91 92 93 93 93 93 94 95 96 96 97
71 70 71 70 66 64 65 65 66 67 64 59 55 53 52 52 52 51 51 52 53 53 54 55 56 56 57 57 56 56 57 57 58 59 60 60 60 60 60 61 61 61 62 63 63 64 64 65 66 67 68 70 72 73 75 76 77 78 80 81 82 83 84 85 86 87 87 87 87 87 88 88 89 90 91 91 92 93 93 93 94 95 95 96 96 97
67 63 62 62 58 58 61 64 64 62 58 55 53 52 50 52 52 52 52 54 53 53 54 55 55 55 57 57 57 56 56 56 57 58 59 59 60 60 60 61 62 63 63 64 64 65 65 66 67 68 69 71 73 74 76 77 78 79 80 81 83 84 85 86 87 87 87 87 87 87 88 88 89 89 90 91 92 93 93 93 94 94 95 95 96 96
61 56 55 57 56 56 58 60 59 56 54 53 53 51 51 52 51 51 53 54 53 53 54 55 54 54 55 57 57 57 56 56 57 57 58 59 60 60 61 61 62 63 63 64 65 65 66 67 68 68 69 71 72 74 75 76 78 79 80 81 82 83 85 85 86 87 87 87 87 87 88 88 88 89 90 90 91 92 92 92 93 93 93 93 94 95
56 50 51 55 56 55 55 54 53 51 50 50 51 50 49 50 49 50 52 53 53 53 53 53 53 53 54 55 57 57 57 58 58 58 59 60 61 61 61 62 62 63 63 64 64 65 66 67 67 68 69 69 70 71 73 74 76 77 78 80 81 83 84 85 86 86 86 86 86 86 87 87 86 85 86 86 86 87 86 86 87 87 87 87 88 89
50 45 49 55 54 54 54 50 47 47 47 48 49 49 48 49 49 50 51 51 51 51 52 52 53 53 54 55 56 58 59 60 61 61 61 61 61 61 61 61 62 62 63 63 64 65 65 66 67 67 67 67 68 69 71 72 74 76 78 80 82 83 84 84 85 84 84 83 83 82 81 80 79 77 77 76 75 76 75 75 76 77 76 77 78 80
45 44 50 54 52 52 52 46 43 45 46 46 48 49 48 49 48 48 49 50 50 50 52 53 53 54 55 56 58 60 61 62 62 62 62 61 61 61 61 61 62 62 62 62 62 63 64 64 64 64 64 65 66 68 70 72 74 76 79 80 81 82 81 81 81 80 78 76 75 73 72 72 70 70 69 68 68 68 68 68 69 69 69 69 71 72
45 45 49 50 50 50 49 44 42 44 46 45 46 48 49 48 48 48 49 50 51 51 53 54 55 57 58 59 60 61 62 62 62 61 61 61 61 61 61 61 61 61 60 60 60 60 61 61 61 62 63 65 66 68 70 72 74 76 77 78 78 77 76 75 73 71 69 68 67 66 66 66 65 65 64 63 63 63 64 65 66 66 65 65 66 68
45 45 45 48 51 49 46 43 43 46 47 46 46 48 50 49 49 49 50 51 52 53 55 56 58 59 60 61 61 61 61 61 61 61 61 61 61 61 61 60 59 58 56 56 57 58 58 59 60 61 63 65 67 69 70 71 72 72 72 72 71 71 69 67 64 62 61 60 59 58 58 58 58 58 57 57 56 56 57 58 60 62 62 62 63 64
44 42 42 48 52 50 45 43 44 47 49 48 47 48 49 49 50 51 52 52 54 55 57 59 60 60 60 60 60 60 60 60 60 60 60 60 60 59 58 57 55 53 53 54 55 56 57 58 60 62 64 66 68 68 68 68 67 67 66 66 65 64 62 60 57 54 52 51 51 51 52 52 52 52 52 52 53 53 54 54 54 56 57 58 59 61
Wind_Direction
276 276 276 277 280 281 279 278 279 279 280 280 281 282 284 285 286 288 289 288 287 287 287 288 286 285 285 287 288 287 286 287 287 288 289 290 289 288 287 285 280 276 275 274 275 275 274 274 274 275 275 275 273 271 268 265 265 265 264 264 262 260 260 260 261 264 265 266 266 265 264 262 261 261 261 263 264 265 265 263 262 260 259 259 260 260
275 275 276 278 278 277 277 278 279 279 278 279 280 282 283 283 285 287 287 286 286 286 288 289 288 287 288 288 287 285 286 287 287 286 286 287 287 287 287 285 281 279 277 275 275 275 274 274 273 272 271 270 269 267 266 265 265 264 263 261 258 255 255 255 256 259 261 263 265 266 266 266 264 263 262 262 263 263 264 263 263 262 260 260 261 261
275 275 276 277 278 276 275 276 276 277 278 278 280 281 282 283 285 286 285 286 285 285 286 287 287 288 289 289 288 288 287 287 289 288 285 284 283 281 280 280 279 279 279 277 276 275 273 272 270 268 267 266 265 264 263 264 265 264 261 257 252 248 248 250 251 254 258 263 267 270 271 271 270 268 266 265 263 263 263 263 263 262 261 261 261 261
275 275 275 276 276 276 275 274 274 275 277 278 279 280 281 283 285 284 284 285 285 285 285 285 286 288 290 289 289 291 292 293 296 295 292 290 286 283 280 277 276 276 276 276 275 273 272 270 268 266 265 264 262 261 260 261 262 261 256 251 248 246 245 247 249 251 255 260 266 270 273 273 273 272 271 270 268 266 264 264 264 264 263 263 263 263
273 274 276 276 274 274 274 275 275 275 276 277 277 278 280 282 282 283 283 284 284 285 285 285 287 288 290 289 290 292 294 297 298 295 295 295 292 289 287 283 280 276 273 272 271 271 270 269 267 266 266 264 261 259 258 257 256 255 251 247 246 245 245 246 248 250 254 258 264 269 272 273 272 271 271 271 271 270 269 268 267 267 266 266 267 267
272 273 275 275 274 274 274 274 275 275 275 275 276 278 279 279 280 281 282 283 284 285 285 286 286 285 286 288 291 293 293 296 295 291 292 295 294 295 295 293 290 283 276 271 268 267 268 267 266 265 265 264 260 257 255 253 251 250 248 246 245 245 245 246 248 251 255 260 265 270 273 274 274 272 270 269 268 269 269 269 269 269 269 269 269 269
273 273 272 273 274 274 274 274 275 275 275 275 276 277 277 277 278 279 280 281 282 283 284 286 287 285 285 289 292 293 293 293 292 290 290 292 294 296 299 299 296 292 285 277 272 267 265 265 264 263 263 261 259 255 253 251 250 249 248 247 246 245 246 248 251 255 261 267 271 274 275 277 278 277 275 272 270 268 267 266 266 266 267 268 268 269
274 273 273 273 273 274 274 275 275 275 276 276 277 277 277 277 278 278 279 279 280 281 282 284 286 286 288 292 293 293 292 291 289 289 290 290 291 294 299 300 295 295 289 276 273 272 268 267 265 263 261 259 257 254 251 250 249 249 250 250 249 249 251 252 256 260 266 272 276 278 279 279 280 279 278 276 273 271 270 268 267 266 265 265 266 266
275 274 274 274 274 275 275 275 275 276 277 278 279 279 280 279 279 279 279 279 280 281 282 283 287 289 289 292 294 292 291 290 290 290 290 291 292 294 297 296 290 286 278 271 277 280 272 268 266 263 261 258 256 253 250 248 249 250 251 252 253 254 256 257 260 264 268 272 276 279 281 281 280 280 279 277 273 272 273 274 273 272 270 268 266 266
276 275 275 275 276 276 276 276 277 277 277 278 279 280 280 280 280 281 280 281 282 282 282 285 290 291 290 291 291 290 290 291 290 291 293 297 297 297 295 294 288 279 272 276 285 289 278 268 265 264 261 258 255 253 251 249 250 252 254 256 257 258 259 261 264 267 270 273 277 281 282 282 281 281 280 278 274 270 272 276 277 276 275 273 271 269
277 277 277 277 277 277 278 277 277 278 278 279 280 280 280 281 281 281 281 283 283 283 285 287 289 289 288 287 287 288 289 290 291 292 296 299 300 298 295 294 292 285 280 281 287 290 284 270 260 257 257 256 254 252 252 252 253 255 256 259 261 261 261 262 265 269 273 276 279 282 283 283 282 281 281 279 274 270 270 275 279 278 276 275 273 271
277 278 277 277 277 278 278 278 278 279 280 281 281 281 281 282 282 282 282 281 281 283 285 285 285 284 283 283 284 286 287 288 291 293 295 296 295 291 287 289 290 288 284 285 286 286 282 273 260 252 251 251 252 252 252 254 256 258 259 262 263 264 264 265 267 270 275 278 281 283 284 284 283 282 280 278 274 270 268 272 278 279 277 276 275 273
281 280 279 279 279 279 279 280 281 281 281 281 281 282 282 282 282 282 282 282 283 283 282 280 280 279 279 279 280 282 284 287 289 290 290 291 290 285 281 285 288 288 285 285 284 281 278 275 268 260 255 251 251 253 255 256 258 260 263 265 267 268 269 270 272 274 277 279 282 283 284 283 283 281 280 277 274 271 269 270 276 279 277 275 274 273
282 280 280 280 280 280 281 281 281 281 281 281 281 282 281 282 282 282 283 285 285 282 280 278 278 277 278 279 280 281 282 283 283 282 283 284 285 284 283 283 285 285 284 283 281 279 280 279 276 272 268 264 262 262 262 261 262 264 266 268 270 271 273 275 276 277 279 281 282 283 283 282 281 279 278 276 273 271 270 270 274 277 277 275 273 273
280 279 279 279 278 279 279 279 279 280 280 280 281 280 279 280 281 281 282 281 280 278 277 278 278 278 280 282 283 283 281 280 279 278 278 279 280 282 282 281 281 281 282 282 281 281 282 284 282 280 277 275 273 272 270 268 267 266 267 268 270 271 273 276 277 279 280 281 282 282 282 281 279 277 275 274 271 269 269 269 272 274 275 274 272 272
275 277 278 278 277 277 276 276 277 278 278 278 278 278 278 279 279 278 277 276 276 276 275 276 277 278 280 280 281 281 281 281 281 280 280 280 280 280 281 281 281 281 281 280 280 280 281 283 283 282 281 278 276 274 274 272 271 269 268 268 269 271 273 276 277 279 280 282 282 282 282 280 278 276 273 272 271 269 269 269 271 272 273 273 271 270
273 274 276 277 278 277 276 276 276 277 278 278 278 279 281 280 278 276 276 276 276 276 276 277 278 279 280 278 277 279 279 280 281 281 281 280 280 279 279 279 280 281 280 279 278 278 278 279 280 281 281 280 277 276 275 275 275 274 273 272 271 272 274 276 277 278 279 280 281 281 281 279 277 276 273 272 271 270 270 270 272 273 273 272 270 269
275 275 275 278 280 281 281 281 280 280 280 280 280 281 281 279 278 278 277 277 277 278 279 281 280 281 281 281 281 281 280 280 279 279 278 278 278 278 278 277 278 278 279 279 279 277 277 278 278 278 278 278 278 277 277 277 277 277 276 276 275 275 274 275 276 278 278 279 279 279 278 277 276 274 272 271 271 271 270 271 272 274 274 272 270 269
280 279 277 279 282 283 283 284 284 284 284 283 282 281 278 277 277 277 277 278 280 280 281 283 283 282 283 284 284 283 281 281 280 278 278 277 276 274 274 274 274 274 275 276 276 275 276 277 276 276 276 276 276 276 277 278 278 278 279 279 279 278 278 277 277 278 278 279 278 277 276 275 273 272 271 270 270 270 270 271 272 273 274 273 271 269
284 283 282 281 282 284 285 286 287 287 287 285 283 281 280 280 279 278 276 278 280 281 282 284 283 284 286 287 285 283 283 283 282 279 277 276 275 274 273 273 273 273 273 273 273 273 274 275 276 276 276 276 276 276 276 277 278 279 279 279 280 280 280 279 279 278 278 278 278 276 275 273 272 271 271 270 269 269 269 269 270 270 271 270 270 268
285 285 285 285 285 286 288 289 288 286 284 283 283 283 283 283 283 281 279 278 279 279 281 281 280 282 285 286 286 286 284 283 281 278 275 273 274 274 274 274 273 272 271 271 271 272 272 273 274 275 276 277 278 278 278 277 277 277 277 277 277 278 278 278 278 277 277 276 275 274 273 271 270 269 268 267 266 265 264 263 263 262 262 262 263 262
284 284 285 286 287 287 289 289 286 283 282 281 280 281 282 283 283 283 282 282 281 279 279 279 279 280 282 283 284 283 281 278 277 274 272 270 269 269 269 270 270 270 270 271 272 272 273 273 272 273 273 274 275 276 277 277 276 276 275 275 275 275 275 275 275 275 274 273 272 271 270 270 269 268 266 264 262 261 260 260 259 258 257 256 256 256
284 284 284 285 286 286 287 287 284 283 283 280 277 276 276 278 279 278 279 281 281 280 280 279 279 279 279 280 278 275 273 271 269 269 270 269 268 266 266 266 266 267 269 270 271 272 273 273 273 273 272 272 272 273 273 274 274 275 275 275 275 275 275 275 275 274 274 273 271 268 267 266 267 266 265 262 260 258 257 257 256 255 254 254 254 254
284 284 284 284 284 284 286 286 284 283 282 279 278 277 276 277 278 277 276 279 279 278 279 278 277 278 279 279 276 273 271 267 265 265 267 267 267 265 264 264 265 267 268 269 269 270 271 271 272 272 272 272 272 271 272 272 273 274 274 275 276 276 276 275 275 274 274 273 272 270 268 266 265 265 264 262 259 256 254 255 254 254 254 253 253 253
281 281 281 281 280 280 282 283 283 282 279 277 276 276 276 277 277 276 275 275 274 275 275 275 274 276 279 279 277 275 273 270 268 268 268 268 267 266 266 267 268 269 270 271 271 271 271 271 270 270 271 271 272 272 272 272 272 273 274 275 275 275 275 274 274 273 273 272 272 271 270 268 266 265 264 263 262 259 257 255 254 253 253 253 253 253
277 277 277 277 277 278 280 281 280 278 276 273 272 272 273 274 274 273 272 271 272 273 273 273 274 276 277 277 277 276 274 273 272 271 270 268 266 266 266 267 269 270 271 272 272 273 272 272 271 270 270 270 270 271 271 272 273 275 276 276 275 275 274 273 273 273 272 272 272 271 271 270 269 267 265 264 263 263 262 260 257 255 253 253 254 255
275 275 275 275 276 277 278 279 278 276 275 274 272 272 272 273 273 273 272 272 273 274 273 272 274 275 274 275 276 275 274 274 273 272 271 270 269 269 269 269 270 271 271 270 270 271 272 273 273 273 272 270 269 269 270 272 275 277 278 277 276 275 275 274 274 273 272 272 271 271 271 270 270 269 267 266 265 264 264 264 263 261 258 257 256 256
275 274 275 276 275 276 277 278 277 276 275 275 274 273 273 273 273 273 274 274 275 275 274 274 274 273 273 273 272 272 271 271 271 270 269 268 268 268 269 269 268 268 267 267 268 269 271 273 273 274 273 272 272 272 273 274 276 277 277 277 276 276 276 276 275 275 274 273 272 272 271 270 269 269 268 267 266 265 264 264 264 264 264 263 261 260
275 275 277 276 274 275 276 277 277 276 274 273 274 275 275 275 276 276 275 274 274 275 276 277 275 273 273 273 272 271 271 270 270 268 267 266 266 266 267 266 265 264 265 266 269 271 273 274 274 273 273 273 273 274 275 276 276 277 276 276 276 276 276 276 276 275 275 274 274 273 272 271 271 270 269 269 268 266 265 263 263 263 264 265 265 264
275 276 277 276 275 276 276 277 277 275 274 274 275 276 277 280 281 280 277 276 276 276 277 278 276 274 274 274 273 272 271 271 270 270 269 269 268 268 268 267 267 267 268 269 271 272 273 274 274 274 274 274 275 275 275 276 276 276 276 276 276 276 276 275 275 275 274 274 273 273 272 272 271 271 271 270 270 268 267 265 264 263 263 263 264 264
276 277 277 277 277 277 278 279 277 275 275 275 275 277 281 284 284 281 280 280 280 278 279 279 277 277 277 276 273 272 271 270 270 270 270 270 270 270 270 270 270 270 271 272 273 273 274 275 275 275 275 275 275 275 275 275 275 275 275 275 275 275 275 275 275 275 274 274 273 272 272 271 271 270 270 269 269 269 269 269 268 267 266 265 264 263
276 277 278 278 278 278 280 280 277 276 275 275 277 282 285 286 284 283 282 282 281 281 281 279 278 278 277 276 274 273 272 271 270 270 270 270 270 270 270 270 271 271 272 273 273 274 274 275 275 275 275 275 275 274 274 274 274 274 274 274 274 274 274 274 274 275 275 275 275 274 273 272 271 270 269 268 268 269 269 271 272 272 270 269 267 266
278 279 279 279 279 279 281 280 279 277 276 277 282 286 287 285 284 284 283 283 283 283 282 280 279 278 277 276 275 274 273 272 272 272 271 271 270 270 270 271 271 272 273 273 273 274 274 274 274 274 275 275 275 275 275 275 276 275 275 275 274 274 275 275 276 276 276 276 275 275 274 273 272 271 270 269 268 268 268 270 272 271 271 270 270 269
279 279 280 280 280 281 282 281 280 278 278 282 286 286 285 285 285 284 284 285 285 284 282 281 280 279 278 277 276 276 275 275 274 274 273 273 272 272 272 272 272 273 273 273 274 275 275 275 275 275 276 276 276 277 277 277 277 277 276 276 276 275 276 276 276 276 276 276 276 276 275 274 274 273 273 272 271 270 270 271 271 270 269 269 268 268
280 280 281 281 281 283 283 282 281 280 283 286 286 285 285 285 285 285 285 285 284 282 281 280 280 280 279 279 278 278 278 277 277 277 276 276 276 275 275 274 274 274 274 275 275 276 276 277 277 277 278 278 278 278 278 278 278 278 278 277 277 276 276 276 276 276 276 276 276 276 275 275 274 274 274 274 274 274 273 273 272 271 269 268 267 267
281 281 281 282 283 284 284 283 283 284 286 286 286 286 287 286 286 286 285 284 283 282 281 281 280 280 279 279 278 278 278 278 278 279 279 278 278 278 277 277 277 277 276 276 276 277 277 278 278 278 279 279 279 279 279 278 278 278 278 278 277 277 277 276 276 276 276 276 276 276 276 276 275 275 275 275 275 275 274 274 273 272 271 270 269 267
281 282 282 283 283 283 284 284 285 286 286 287 287 288 287 286 286 285 284 282 281 281 281 280 280 280 280 280 280 280 280 280 279 279 279 278 278 278 278 278 278 278 278 278 278 278 278 278 278 278 278 278 279 279 278 278 278 278 278 278 278 278 278 278 278 278 277 277 277 277 277 277 277 276 276 276 276 275 275 274 274 273 273 272 271 269
282 283 283 283 283 283 284 285 285 286 287 287 288 288 288 287 286 284 282 280 280 280 280 280 280 281 281 281 281 281 281 280 280 280 279 279 280 280 280 280 280 280 280 280 280 280 280 280 280 280 280 280 280 280 280 280 280 280 280 280 280 280 280 280 279 279 279 278 278 278 278 277 277 277 276 276 276 276 275 275 274 274 273 273 272 271
282 283 283 282 283 284 285 284 285 285 286 288 288 289 288 287 285 283 281 280 281 282 281 280 280 280 280 280 280 281 282 282 282 282 282 283 284 285 286 286 285 284 284 284 283 283 283 283 282 282 282 282 282 281 281 281 281 281 281 281 281 281 281 280 280 280 279 279 279 279 279 278 278 277 277 276 276 276 275 275 275 275 274 274 273 272
282 283 283 282 284 285 285 284 285 285 286 288 289 289 287 285 283 281 281 282 284 283 281 279 279 279 280 281 281 282 284 285 286 286 286 286 286 286 287 287 286 286 286 286 286 286 285 285 284 284 284 284 284 283 283 283 282 282 282 282 282 282 282 281 281 280 280 280 280 280 279 279 279 278 278 277 277 276 276 276 275 275 275 275 274 273
283 282 282 283 285 286 285 285 285 285 285 287 288 287 285 283 281 281 282 284 285 283 280 280 281 281 282 283 284 286 287 288 289 289 289 288 288 287 287 288 288 289 289 288 288 287 286 286 286 286 285 285 285 285 285 284 284 284 284 284 284 283 283 283 282 282 282 282 281 281 281 280 280 280 279 278 278 277 276 276 275 275 275 274 274 274
283 282 283 285 286 286 285 284 283 283 286 287 286 284 282 281 281 281 282 282 281 281 282 283 284 284 285 286 287 288 289 289 290 291 291 291 290 290 290 290 290 290 290 289 289 288 288 287 287 287 287 287 287 287 286 286 286 286 286 286 286 286 285 285 284 284 283 283 283 282 282 281 281 281 280 279 278 278 277 276 275 274 274 273 273 272
282 283 285 287 287 285 283 281 280 283 286 288 286 284 283 282 281 281 281 281 282 284 285 285 286 286 287 287 287 288 288 289 289 290 291 291 291 291 291 291 291 291 290 290 290 289 289 289 289 288 288 288 288 288 288 288 288 288 288 288 288 287 287 286 286 285 285 285 284 284 283 283 282 281 281 280 279 278 277 276 275 275 274 273 272 272
282 284 286 287 284 280 279 280 282 284 287 287 285 284 282 281 281 281 281 281 282 283 284 285 286 287 288 288 287 287 287 288 289 290 291 292 292 293 293 293 292 292 291 291 291 291 290 290 290 289 289 289 289 289 289 289 289 290 289 289 289 288 288 287 287 287 287 287 286 286 285 285 284 283 283 282 281 280 279 278 277 276 275 274 273 272
283 285 285 282 278 275 276 280 283 286 288 287 284 282 281 280 281 282 281 282 282 283 284 285 286 287 288 288 289 290 290 291 291 292 293 293 294 294 294 293 292 292 292 291 291 291 291 291 290 290 290 290 291 291 291 291 291 291 291 290 290 289 289 289 289 289 289 289 288 288 287 286 286 285 284 283 282 281 280 279 278 278 277 276 275 274
283 284 281 277 274 274 275 278 282 285 286 285 283 282 282 282 282 282 282 283 285 285 286 287 287 288 288 289 291 292 292 293 294 294 294 294 294 293 292 292 292 291 292 292 291 291 291 291 292 292 292 292 292 293 293 293 293 293 292 291 291 290 290 290 290 291 291 290 290 290 289 288 288 287 286 285 285 284 283 282 281 280 279 278 277 276
282 282 277 273 274 276 277 280 284 284 283 281 281 282 283 283 282 282 283 285 286 287 288 288 289 289 289 290 291 292 293 293 294 293 293 293 292 292 292 292 292 292 292 292 292 292 292 292 292 293 293 293 294 294 294 294 294 293 293 292 292 292 292 292 292 292 293 293 293 292 292 291 291 290 289 288 287 286 285 284 283 282 281 280 279 277
282 278 273 273 276 279 281 283 284 282 280 279 281 282 282 282 283 284 285 285 286 287 287 288 289 289 290 290 291 292 292 293 292 292 292 292 292 292 292 293 293 293 293 293 293 293 293 293 293 294 294 295 295 295 295 295 295 294 294 293 293 294 294 294 294 295 296 296 296 295 294 293 292 291 290 290 289 288 287 286 285 284 283 282 281 279
282 278 278 279 280 280 282 283 283 280 277 277 279 281 281 280 282 283 284 285 286 287 287 287 288 289 290 291 292 292 292 291 292 292 292 293 293 293 293 293 293 293 293 293 292 292 293 294 295 296 296 297 297 297 297 297 296 295 295 295 295 296 296 297 297 298 298 298 297 296 295 294 293 292 292 291 290 289 288 287 286 284 283 282 281 280
280 280 283 283 281 281 282 284 284 282 279 277 277 279 281 282 283 283 283 285 286 287 287 288 289 290 291 292 292 291 291 291 292 292 293 293 294 294 293 293 293 293 292 292 292 293 294 296 297 298 298 299 299 299 299 298 297 297 297 298 299 299 299 300 301 301 300 300 300 300 299 298 297 296 295 293 292 291 290 289 288 286 285 283 281 280
281 281 281 279 280 282 284 284 285 284 282 280 278 278 280 283 284 284 284 285 286 287 288 289 290 291 291 291 291 291 291 292 293 293 294 294 294 293 293 293 292 292 291 291 292 294 296 298 299 300 300 301 301 301 300 300 301 301 302 302 301 302 303 304 305 305 306 306 306 305 304 303 302 301 299 297 295 294 293 291 290 289 287 285 283 282
Height
5802 5797 5795 5798 5802 5801 5797 5796 5796 5796 5794 5791 5790 5789 5788 5786 5785 5788 5789 5789 5788 5782 5781 5783 5782 5781 5782 5782 5783 5781 5780 5781 5782 5782 5782 5783 5784 5783 5782 5781 5779 5778 5777 5776 5776 5776 5776 5776 5775 5775 5774 5774 5773 5773 5773 5773 5772 5772 5772 5772 5772 5772 5771 5771 5771 5771 5771 5770 5770 5770 5770 5770 5770 5771 5771 5771 5772 5772 5773 5772 5772 5773 5772 5771 5771 5771
5796 5792 5790 5794 5797 5796 5793 5791 5790 5790 5789 5788 5786 5784 5783 5782 5780 5783 5782 5781 5782 5778 5776 5776 5775 5774 5776 5777 5776 5775 5775 5775 5776 5777 5778 5778 5778 5779 5777 5775 5774 5773 5772 5772 5772 5772 5772 5772 5771 5770 5770 5769 5768 5768 5768 5768 5768 5768 5767 5767 5767 5767 5767 5767 5767 5766 5766 5766 5765 5766 5765 5765 5765 5766 5766 5766 5767 5767 5767 5767 5767 5768 5767 5767 5767 5766
5789 5787 5787 5789 5791 5789 5788 5787 5785 5783 5784 5783 5782 5780 5778 5777 5777 5777 5775 5774 5775 5774 5772 5771 5768 5768 5769 5769 5768 5767 5768 5771 5770 5769 5772 5773 5772 5774 5773 5771 5770 5769 5768 5768 5768 5768 5767 5767 5766 5766 5765 5764 5763 5763 5763 5763 5764 5763 5763 5762 5762 5762 5762 5762 5762 5762 5762 5762 5762 5761 5761 5761 5760 5760 5760 5761 5761 5761 5761 5761 5762 5762 5762 5761 5761 5761
5784 5781 5782 5785 5785 5783 5781 5781 5780 5779 5779 5778 5777 5775 5773 5774 5773 5770 5770 5768 5768 5768 5767 5765 5763 5763 5763 5761 5761 5760 5758 5762 5763 5760 5760 5762 5763 5765 5766 5766 5765 5765 5764 5763 5763 5763 5763 5763 5762 5761 5760 5759 5759 5758 5759 5759 5759 5759 5759 5758 5758 5757 5757 5757 5757 5757 5757 5757 5757 5757 5757 5757 5756 5755 5756 5755 5755 5755 5756 5756 5756 5756 5756 5756 5756 5756
5780 5777 5778 5780 5779 5778 5776 5775 5775 5774 5774 5773 5772 5771 5770 5770 5768 5766 5765 5763 5762 5762 5760 5760 5758 5758 5758 5754 5755 5756 5753 5754 5756 5754 5752 5751 5751 5755 5756 5758 5760 5760 5760 5759 5759 5758 5758 5758 5757 5757 5755 5754 5754 5754 5754 5754 5754 5754 5753 5753 5753 5753 5752 5752 5752 5752 5752 5753 5752 5753 5752 5752 5752 5751 5751 5751 5750 5751 5750 5751 5751 5751 5751 5751 5751 5751
5775 5775 5774 5773 5772 5772 5771 5770 5769 5769 5768 5768 5767 5767 5767 5766 5764 5762 5761 5758 5757 5756 5753 5754 5754 5753 5753 5751 5750 5751 5751 5751 5748 5747 5748 5745 5743 5745 5746 5747 5750 5751 5753 5754 5754 5753 5753 5753 5752 5752 5751 5749 5749 5748 5748 5748 5748 5748 5747 5747 5747 5747 5747 5747 5747 5747 5747 5747 5747 5747 5747 5747 5747 5747 5747 5746 5746 5746 5746 5746 5746 5746 5746 5746 5745 5745
5770 5771 5770 5768 5766 5766 5766 5766 5764 5763 5763 5762 5762 5763 5762 5760 5759 5758 5757 5755 5753 5751 5749 5748 5747 5745 5747 5749 5747 5745 5745 5746 5743 5740 5742 5741 5739 5738 5738 5738 5739 5741 5744 5746 5748 5749 5748 5748 5747 5747 5746 5745 5744 5743 5743 5743 5742 5742 5742 5742 5742 5741 5741 5741 5741 5742 5742 5742 5742 5742 5742 5741 5742 5742 5741 5741 5741 5741 5741 5741 5740 5740 5740 5740 5739 5739
5765 5764 5764 5763 5762 5761 5761 5760 5759 5758 5757 5756 5757 5756 5756 5755 5754 5753 5751 5749 5747 5746 5745 5744 5741 5740 5742 5744 5742 5740 5738 5738 5738 5736 5735 5737 5737 5735 5733 5733 5733 5734 5736 5737 5740 5742 5742 5742 5741 5741 5740 5739 5738 5738 5738 5737 5737 5736 5736 5736 5736 5736 5736 5736 5736 5736 5736 5736 5736 5736 5736 5735 5735 5735 5735 5735 5735 5735 5735 5735 5735 5734 5734 5734 5734 5733
5759 5759 5758 5757 5757 5756 5756 5754 5753 5753 5752 5751 5751 5750 5750 5749 5748 5747 5745 5744 5742 5741 5740 5739 5737 5736 5738 5739 5735 5733 5731 5730 5731 5731 5729 5731 5734 5733 5730 5729 5730 5730 5730 5729 5731 5735 5736 5736 5735 5734 5734 5734 5733 5732 5732 5732 5731 5730 5730 5730 5730 5730 5730 5730 5730 5730 5730 5730 5730 5729 5729 5729 5729 5729 5729 5729 5729 5729 5729 5729 5729 5729 5729 5728 5728 5727
5753 5753 5753 5752 5752 5751 5750 5749 5748 5747 5746 5746 5746 5744 5743 5742 5741 5739 5738 5738 5737 5735 5736 5735 5734 5732 5733 5734 5730 5726 5724 5724 5725 5725 5725 5726 5727 5727 5725 5725 5726 5726 5726 5723 5723 5727 5729 5729 5729 5728 5728 5727 5727 5726 5726 5725 5725 5723 5723 5723 5723 5724 5724 5724 5723 5723 5723 5723 5723 5722 5722 5721 5721 5721 5721 5721 5722 5722 5722 5722 5722 5722 5722 5722 5722 5721
5747 5748 5747 5747 5747 5745 5744 5743 5742 5742 5740 5740 5740 5738 5736 5735 5734 5732 5732 5732 5730 5730 5732 5731 5730 5728 5727 5728 5726 5722 5719 5720 5720 5720 5722 5723 5721 5719 5719 5720 5721 5721 5720 5718 5718 5719 5721 5722 5722 5722 5722 5721 5720 5720 5720 5719 5718 5717 5716 5716 5716 5717 5717 5717 5717 5716 5716 5715 5715 5715 5714 5714 5714 5714 5714 5714 5714 5714 5714 5714 5714 5715 5715 5715 5715 5715
5741 5742 5742 5742 5741 5740 5738 5737 5737 5736 5735 5734 5734 5732 5731 5730 5728 5725 5725 5725 5724 5727 5729 5727 5724 5722 5722 5722 5722 5718 5716 5717 5718 5717 5718 5720 5718 5717 5715 5714 5716 5716 5714 5713 5712 5713 5714 5715 5716 5716 5715 5715 5715 5714 5714 5713 5712 5710 5710 5709 5710 5710 5710 5710 5709 5709 5708 5708 5707 5707 5706 5706 5706 5706 5706 5706 5706 5706 5706 5706 5706 5707 5707 5707 5707 5707
5736 5736 5736 5735 5735 5734 5731 5731 5731 5731 5729 5728 5728 5727 5725 5724 5722 5719 5718 5718 5719 5722 5722 5721 5719 5716 5716 5717 5718 5716 5714 5715 5716 5714 5714 5714 5713 5714 5713 5710 5710 5710 5708 5707 5706 5706 5706 5708 5710 5710 5709 5709 5709 5708 5708 5707 5706 5705 5704 5703 5704 5703 5703 5703 5702 5702 5701 5700 5700 5699 5699 5698 5698 5698 5698 5698 5698 5698 5698 5698 5698 5698 5698 5699 5699 5698
5728 5730 5730 5728 5728 5728 5726 5725 5724 5723 5723 5722 5722 5722 5719 5718 5715 5712 5713 5713 5713 5713 5712 5714 5713 5711 5712 5712 5713 5714 5712 5712 5713 5710 5710 5710 5708 5708 5708 5707 5705 5703 5702 5701 5700 5698 5697 5699 5701 5702 5702 5702 5702 5702 5702 5701 5700 5699 5698 5697 5697 5696 5696 5695 5695 5694 5693 5693 5692 5691 5691 5691 5690 5690 5690 5690 5690 5690 5690 5689 5689 5689 5690 5690 5690 5690
5720 5722 5723 5720 5721 5723 5721 5719 5718 5717 5717 5716 5717 5716 5713 5713 5710 5706 5707 5706 5704 5702 5703 5707 5706 5705 5709 5708 5707 5708 5706 5706 5707 5705 5705 5705 5705 5703 5701 5700 5698 5697 5695 5694 5693 5691 5688 5688 5689 5691 5693 5693 5693 5692 5693 5693 5693 5692 5691 5690 5689 5688 5688 5687 5686 5686 5685 5684 5684 5683 5683 5682 5682 5682 5682 5682 5682 5682 5681 5681 5681 5681 5681 5681 5681 5681
5712 5713 5715 5712 5713 5716 5716 5715 5713 5711 5710 5709 5711 5709 5708 5709 5706 5700 5698 5697 5697 5694 5695 5701 5699 5700 5706 5704 5703 5702 5698 5699 5699 5698 5698 5698 5698 5697 5693 5691 5689 5688 5689 5687 5686 5685 5682 5680 5678 5679 5681 5682 5683 5682 5682 5683 5683 5683 5683 5683 5681 5680 5679 5679 5678 5678 5677 5676 5675 5674 5674 5674 5674 5673 5673 5673 5673 5673 5672 5672 5672 5672 5672 5672 5672 5672
5704 5705 5708 5706 5705 5707 5709 5709 5708 5707 5705 5703 5704 5704 5703 5702 5699 5693 5689 5690 5690 5685 5688 5696 5694 5695 5698 5696 5699 5698 5692 5693 5693 5691 5691 5689 5689 5688 5685 5683 5681 5679 5679 5678 5678 5676 5675 5673 5670 5669 5669 5670 5671 5672 5671 5671 5671 5671 5672 5672 5672 5672 5671 5670 5669 5669 5668 5667 5666 5666 5665 5665 5665 5664 5663 5663 5663 5663 5663 5662 5662 5662 5662 5662 5663 5663
5697 5698 5703 5703 5698 5698 5701 5701 5699 5700 5699 5696 5697 5699 5697 5692 5690 5688 5682 5681 5682 5676 5678 5687 5688 5689 5690 5688 5692 5691 5684 5685 5686 5683 5683 5681 5681 5679 5676 5675 5673 5671 5669 5668 5667 5666 5664 5663 5661 5660 5660 5659 5660 5660 5660 5660 5660 5660 5660 5660 5661 5661 5661 5661 5659 5659 5659 5659 5658 5657 5657 5656 5655 5655 5654 5654 5653 5653 5653 5652 5652 5651 5651 5652 5652 5653
5688 5689 5697 5700 5693 5690 5693 5694 5691 5690 5691 5690 5689 5689 5688 5684 5683 5683 5676 5673 5673 5668 5668 5674 5677 5680 5683 5684 5686 5680 5673 5674 5674 5673 5673 5672 5672 5670 5667 5665 5664 5663 5661 5659 5658 5656 5654 5653 5651 5650 5650 5649 5649 5649 5649 5649 5649 5649 5648 5648 5648 5648 5649 5649 5649 5648 5647 5647 5647 5647 5647 5647 5646 5646 5645 5645 5644 5644 5643 5642 5641 5641 5640 5640 5641 5642
5681 5679 5686 5694 5690 5683 5685 5687 5685 5683 5682 5681 5680 5678 5678 5677 5675 5675 5671 5668 5666 5661 5660 5663 5663 5669 5675 5676 5676 5671 5664 5663 5663 5663 5663 5661 5660 5658 5656 5655 5655 5654 5652 5650 5649 5647 5646 5644 5642 5641 5639 5638 5638 5638 5638 5638 5638 5638 5637 5637 5636 5636 5636 5636 5636 5636 5636 5636 5636 5636 5637 5637 5637 5637 5636 5636 5636 5635 5635 5634 5633 5633 5632 5631 5630 5631
5674 5670 5672 5682 5683 5679 5678 5679 5678 5676 5673 5672 5671 5670 5669 5668 5667 5664 5662 5663 5662 5655 5654 5654 5651 5657 5667 5668 5666 5664 5658 5654 5653 5654 5654 5652 5650 5648 5646 5645 5645 5644 5643 5642 5641 5639 5638 5636 5635 5633 5631 5629 5628 5627 5627 5627 5627 5628 5628 5627 5626 5626 5625 5625 5625 5625 5625 5625 5625 5625 5626 5626 5627 5627 5627 5627 5626 5626 5626 5626 5625 5625 5624 5623 5622 5621
5667 5664 5662 5667 5672 5672 5673 5672 5668 5666 5666 5664 5663 5664 5663 5661 5660 5656 5652 5655 5656 5650 5647 5647 5641 5646 5658 5660 5658 5657 5653 5648 5647 5645 5644 5644 5642 5640 5638 5636 5635 5634 5633 5632 5631 5629 5628 5627 5625 5624 5622 5620 5619 5617 5616 5616 5616 5616 5617 5617 5616 5616 5615 5615 5615 5615 5615 5615 5615 5615 5615 5615 5615 5615 5616 5616 5616 5616 5615 5615 5615 5614 5614 5613 5613 5612
5660 5657 5654 5655 5659 5662 5666 5666 5660 5657 5659 5657 5656 5658 5658 5655 5655 5651 5645 5646 5647 5642 5641 5640 5634 5635 5647 5652 5650 5648 5646 5644 5640 5637 5635 5634 5633 5632 5630 5628 5627 5625 5624 5623 5622 5620 5618 5616 5615 5613 5612 5611 5610 5608 5607 5606 5605 5605 5604 5604 5604 5604 5604 5604 5604 5603 5603 5603 5604 5604 5604 5604 5604 5604 5604 5604 5604 5604 5604 5603 5603 5603 5602 5602 5601 5601
5654 5651 5648 5646 5647 5650 5656 5658 5655 5651 5651 5649 5648 5650 5650 5649 5650 5646 5640 5639 5636 5633 5635 5634 5625 5626 5636 5642 5640 5638 5637 5635 5633 5630 5628 5626 5624 5623 5621 5619 5618 5616 5615 5614 5613 5611 5609 5607 5605 5603 5602 5601 5600 5599 5598 5597 5596 5594 5593 5593 5592 5592 5592 5592 5592 5592 5591 5591 5591 5591 5592 5592 5592 5592 5592 5592 5593 5593 5593 5592 5592 5591 5591 5590 5590 5590
5647 5645 5643 5639 5637 5640 5646 5650 5648 5644 5643 5642 5641 5642 5642 5642 5643 5639 5636 5633 5626 5624 5628 5624 5617 5619 5625 5629 5629 5628 5627 5626 5625 5623 5621 5618 5616 5614 5611 5610 5608 5607 5605 5604 5603 5602 5600 5598 5596 5595 5593 5591 5589 5588 5587 5586 5585 5585 5584 5583 5582 5581 5580 5580 5580 5580 5579 5579 5579 5578 5578 5579 5579 5579 5579 5579 5580 5580 5581 5581 5581 5580 5579 5579 5578 5578
5638 5637 5637 5634 5630 5630 5634 5640 5641 5637 5634 5633 5634 5635 5634 5635 5635 5632 5629 5624 5617 5616 5619 5615 5611 5613 5616 5618 5619 5619 5617 5615 5614 5612 5611 5609 5607 5605 5602 5599 5598 5596 5595 5593 5592 5590 5589 5587 5586 5585 5583 5581 5579 5577 5576 5574 5573 5573 5573 5572 5571 5570 5569 5568 5567 5567 5567 5566 5566 5566 5566 5565 5566 5566 5566 5566 5566 5566 5566 5567 5568 5568 5568 5567 5567 5566
5629 5628 5630 5628 5624 5623 5624 5627 5631 5628 5623 5622 5624 5626 5628 5628 5627 5624 5618 5613 5610 5607 5605 5607 5608 5604 5606 5611 5611 5609 5607 5603 5600 5600 5600 5599 5597 5595 5592 5589 5587 5586 5584 5582 5581 5579 5578 5576 5575 5574 5572 5571 5569 5567 5565 5564 5562 5561 5560 5559 5559 5558 5557 5556 5555 5554 5554 5553 5553 5553 5553 5552 5552 5552 5553 5553 5553 5553 5553 5553 5553 5554 5554 5554 5554 5554
5621 5619 5623 5623 5617 5618 5618 5617 5620 5618 5613 5612 5613 5616 5620 5620 5619 5616 5609 5605 5603 5595 5590 5599 5604 5596 5595 5602 5602 5600 5598 5592 5588 5588 5588 5588 5586 5584 5582 5580 5577 5576 5573 5572 5570 5568 5567 5566 5564 5563 5562 5560 5559 5557 5555 5554 5552 5551 5549 5547 5546 5545 5543 5542 5541 5541 5540 5540 5539 5539 5539 5539 5539 5539 5539 5539 5540 5540 5540 5539 5539 5539 5539 5540 5540 5541
5612 5610 5615 5614 5608 5610 5612 5610 5610 5608 5603 5603 5603 5605 5609 5610 5610 5608 5601 5596 5594 5586 5580 5589 5593 5586 5586 5591 5590 5587 5585 5581 5578 5577 5576 5576 5575 5573 5572 5570 5568 5566 5564 5562 5560 5558 5556 5555 5554 5553 5551 5550 5548 5546 5545 5543 5541 5540 5537 5535 5533 5531 5530 5529 5528 5527 5526 5526 5526 5525 5525 5525 5525 5525 5525 5525 5525 5526 5526 5526 5526 5526 5526 5526 5526 5526
5603 5602 5605 5603 5598 5602 5605 5604 5602 5597 5592 5592 5594 5595 5597 5600 5600 5597 5590 5588 5586 5579 5576 5579 5576 5573 5578 5579 5575 5573 5572 5570 5567 5565 5564 5563 5562 5561 5560 5559 5557 5556 5553 5551 5549 5546 5545 5543 5542 5541 5539 5537 5536 5534 5532 5530 5529 5527 5525 5522 5520 5518 5516 5515 5515 5514 5513 5513 5512 5512 5511 5511 5511 5511 5510 5510 5510 5510 5510 5511 5512 5512 5512 5512 5512 5512
5596 5595 5595 5592 5587 5590 5596 5597 5592 5586 5582 5581 5583 5587 5590 5590 5589 5585 5581 5581 5577 5570 5570 5569 5562 5560 5565 5565 5560 5559 5559 5558 5556 5554 5553 5552 5550 5549 5548 5546 5546 5544 5542 5539 5536 5534 5533 5531 5529 5528 5526 5524 5522 5520 5519 5517 5516 5514 5512 5510 5508 5506 5504 5502 5501 5500 5499 5498 5498 5497 5497 5497 5496 5496 5496 5495 5495 5495 5495 5495 5495 5496 5496 5496 5496 5497
5589 5586 5586 5584 5576 5577 5587 5587 5579 5576 5572 5569 5574 5581 5584 5581 5576 5573 5572 5570 5566 5561 5559 5556 5550 5548 5550 5548 5545 5544 5544 5544 5544 5542 5542 5541 5538 5536 5535 5534 5533 5531 5529 5527 5524 5523 5521 5519 5517 5515 5513 5511 5509 5507 5506 5504 5503 5501 5499 5497 5496 5494 5492 5490 5488 5486 5485 5483 5482 5481 5481 5482 5482 5482 5481 5480 5480 5480 5479 5478 5479 5479 5479 5479 5479 5480
5582 5577 5576 5575 5566 5565 5576 5575 5566 5563 5559 5559 5570 5576 5575 5571 5565 5560 5559 5558 5556 5553 5546 5540 5537 5536 5534 5532 5531 5528 5528 5530 5531 5530 5531 5529 5526 5523 5521 5521 5521 5519 5517 5514 5512 5510 5508 5506 5504 5502 5500 5498 5496 5494 5492 5491 5489 5488 5486 5485 5484 5482 5480 5477 5476 5474 5472 5470 5468 5466 5466 5466 5466 5467 5466 5466 5465 5465 5465 5464 5463 5462 5462 5462 5462 5462
5573 5569 5567 5565 5556 5554 5564 5564 5553 5547 5546 5554 5566 5567 5562 5560 5554 5547 5546 5547 5546 5542 5534 5526 5523 5523 5520 5517 5516 5513 5513 5516 5517 5518 5518 5516 5511 5508 5508 5509 5508 5506 5504 5502 5500 5498 5496 5494 5492 5490 5488 5485 5483 5481 5479 5477 5475 5474 5474 5473 5471 5469 5467 5465 5463 5461 5458 5457 5455 5453 5452 5451 5451 5451 5450 5450 5449 5449 5449 5449 5448 5447 5446 5446 5446 5446
5565 5562 5558 5556 5549 5545 5551 5550 5538 5533 5540 5549 5552 5553 5552 5549 5542 5536 5534 5535 5533 5528 5522 5516 5512 5510 5507 5503 5501 5500 5501 5502 5503 5505 5506 5502 5498 5494 5494 5496 5496 5494 5492 5491 5489 5487 5484 5482 5480 5478 5476 5473 5470 5469 5466 5464 5462 5461 5460 5459 5458 5456 5455 5452 5450 5448 5445 5443 5442 5440 5438 5436 5435 5434 5434 5433 5432 5431 5431 5430 5429 5429 5428 5428 5429 5429
5556 5554 5549 5546 5542 5537 5537 5535 5526 5523 5533 5538 5537 5539 5541 5534 5529 5525 5519 5518 5518 5515 5510 5506 5502 5498 5494 5491 5490 5489 5489 5490 5492 5494 5494 5490 5485 5482 5482 5484 5484 5481 5480 5479 5478 5477 5474 5471 5469 5467 5464 5462 5459 5456 5453 5451 5450 5448 5446 5444 5442 5441 5440 5437 5436 5434 5431 5429 5428 5426 5424 5422 5420 5419 5418 5417 5414 5413 5413 5411 5410 5409 5408 5408 5410 5411
5547 5545 5541 5536 5533 5530 5525 5522 5517 5514 5518 5523 5525 5528 5527 5520 5517 5513 5503 5500 5504 5504 5500 5495 5491 5486 5483 5480 5479 5478 5478 5479 5481 5484 5484 5479 5474 5472 5471 5473 5473 5470 5469 5468 5466 5466 5464 5462 5459 5456 5453 5451 5448 5444 5440 5439 5437 5435 5432 5430 5428 5426 5425 5422 5420 5418 5416 5415 5414 5412 5410 5407 5405 5404 5403 5401 5398 5396 5395 5394 5392 5392 5389 5388 5390 5391
5537 5535 5533 5526 5522 5523 5518 5511 5508 5505 5504 5508 5513 5514 5513 5508 5504 5500 5490 5486 5492 5494 5490 5486 5481 5477 5473 5472 5470 5468 5467 5467 5469 5474 5473 5469 5466 5463 5460 5462 5463 5460 5459 5457 5455 5454 5454 5451 5448 5445 5442 5440 5437 5433 5429 5428 5425 5422 5419 5417 5415 5413 5411 5409 5406 5404 5401 5401 5400 5398 5396 5393 5391 5389 5387 5386 5383 5380 5379 5377 5376 5375 5373 5371 5371 5372
5529 5525 5522 5515 5511 5514 5510 5502 5498 5495 5493 5497 5500 5500 5499 5495 5491 5487 5478 5474 5481 5485 5480 5476 5473 5469 5465 5464 5462 5459 5458 5457 5459 5463 5463 5460 5458 5454 5450 5450 5451 5450 5448 5447 5445 5444 5443 5440 5438 5435 5431 5429 5426 5423 5420 5418 5415 5411 5408 5406 5404 5402 5399 5396 5394 5391 5388 5387 5386 5384 5382 5379 5377 5374 5372 5371 5368 5365 5363 5362 5360 5359 5356 5354 5354 5354
5521 5516 5511 5506 5503 5504 5500 5491 5487 5487 5486 5488 5489 5488 5487 5484 5480 5476 5468 5466 5472 5473 5468 5465 5464 5461 5457 5456 5454 5452 5451 5450 5450 5452 5453 5452 5450 5448 5443 5441 5440 5440 5439 5437 5436 5435 5432 5429 5427 5425 5422 5418 5415 5413 5410 5407 5405 5402 5398 5396 5393 5390 5387 5384 5382 5379 5376 5374 5373 5371 5368 5365 5362 5360 5358 5355 5353 5351 5349 5347 5346 5343 5341 5338 5337 5336
5510 5505 5501 5497 5495 5494 5489 5481 5476 5476 5479 5482 5482 5479 5476 5473 5470 5467 5463 5461 5461 5460 5458 5456 5455 5453 5451 5449 5447 5446 5445 5443 5442 5442 5442 5442 5441 5439 5437 5433 5431 5431 5429 5427 5426 5425 5423 5420 5417 5415 5412 5408 5404 5402 5399 5395 5394 5391 5388 5385 5382 5379 5375 5372 5369 5366 5363 5361 5360 5357 5354 5351 5348 5345 5343 5340 5337 5335 5334 5333 5330 5328 5325 5323 5321 5320
5497 5493 5492 5491 5487 5483 5478 5473 5466 5465 5470 5475 5474 5470 5467 5464 5462 5460 5457 5455 5453 5451 5450 5449 5447 5446 5444 5442 5441 5439 5438 5437 5435 5433 5432 5432 5430 5430 5428 5425 5424 5423 5420 5417 5416 5414 5412 5411 5408 5405 5401 5397 5393 5391 5388 5384 5382 5379 5376 5373 5370 5366 5363 5360 5356 5352 5350 5348 5346 5343 5341 5338 5334 5330 5327 5325 5321 5318 5317 5317 5314 5311 5309 5306 5305 5304
5486 5482 5483 5484 5480 5472 5466 5462 5457 5457 5464 5466 5462 5461 5460 5456 5454 5453 5450 5447 5446 5445 5443 5441 5440 5439 5436 5435 5435 5433 5431 5430 5428 5426 5424 5423 5422 5420 5419 5417 5415 5413 5410 5408 5406 5404 5402 5400 5398 5395 5391 5387 5383 5380 5376 5373 5370 5367 5364 5361 5357 5353 5349 5346 5342 5339 5336 5334 5332 5329 5326 5323 5319 5315 5312 5309 5305 5301 5299 5299 5296 5293 5291 5289 5287 5286
5477 5476 5475 5475 5471 5462 5455 5453 5450 5452 5458 5457 5453 5452 5451 5447 5446 5446 5443 5441 5441 5440 5437 5434 5434 5433 5429 5426 5426 5426 5425 5424 5422 5420 5418 5416 5414 5412 5410 5408 5405 5402 5400 5398 5396 5394 5392 5389 5387 5385 5381 5377 5373 5369 5366 5361 5358 5355 5352 5347 5343 5339 5335 5331 5328 5325 5323 5320 5317 5314 5311 5307 5304 5300 5296 5293 5288 5284 5281 5281 5278 5274 5273 5272 5269 5267
5470 5472 5468 5463 5459 5453 5449 5448 5447 5447 5450 5448 5443 5443 5442 5440 5440 5439 5435 5433 5434 5433 5431 5428 5427 5427 5423 5419 5417 5417 5416 5415 5414 5413 5411 5408 5406 5403 5401 5399 5396 5393 5391 5389 5386 5384 5382 5379 5377 5375 5372 5367 5362 5358 5355 5350 5346 5343 5339 5334 5329 5325 5321 5318 5314 5311 5309 5306 5302 5299 5295 5291 5288 5285 5280 5276 5272 5267 5265 5263 5260 5257 5256 5255 5252 5250
5463 5466 5459 5450 5448 5446 5444 5445 5445 5444 5444 5440 5434 5433 5433 5433 5434 5432 5427 5426 5426 5425 5423 5421 5420 5419 5417 5413 5410 5409 5407 5406 5405 5404 5402 5400 5398 5395 5392 5389 5387 5384 5382 5379 5376 5374 5372 5369 5366 5364 5361 5358 5353 5348 5345 5340 5334 5330 5326 5321 5316 5312 5308 5304 5301 5298 5295 5291 5287 5283 5279 5274 5272 5269 5265 5261 5257 5252 5249 5247 5244 5241 5240 5239 5236 5234
5455 5459 5449 5439 5438 5438 5436 5441 5443 5439 5437 5433 5428 5426 5426 5425 5425 5424 5421 5419 5419 5417 5415 5414 5412 5411 5409 5407 5405 5402 5400 5398 5397 5395 5393 5391 5389 5387 5384 5381 5378 5376 5373 5370 5367 5365 5362 5360 5357 5354 5351 5348 5344 5339 5335 5330 5325 5319 5313 5308 5304 5300 5296 5292 5287 5284 5281 5277 5272 5269 5264 5259 5256 5253 5250 5247 5243 5238 5235 5233 5229 5226 5225 5224 5220 5217
5448 5448 5440 5433 5433 5430 5429 5435 5437 5431 5428 5427 5423 5420 5420 5418 5417 5417 5414 5412 5412 5411 5409 5407 5405 5403 5402 5400 5398 5396 5393 5391 5388 5387 5385 5382 5380 5378 5375 5373 5370 5367 5364 5361 5358 5356 5353 5350 5348 5345 5342 5339 5335 5330 5326 5321 5315 5308 5301 5297 5293 5288 5285 5281 5276 5272 5269 5264 5260 5255 5251 5247 5243 5240 5237 5235 5231 5227 5224 5221 5217 5213 5212 5211 5206 5202
5439 5436 5432 5428 5426 5424 5423 5428 5428 5422 5420 5422 5419 5414 5412 5412 5412 5411 5408 5406 5405 5404 5402 5400 5398 5396 5394 5393 5391 5389 5386 5383 5381 5379 5376 5374 5371 5369 5366 5364 5361 5358 5355 5353 5350 5347 5345 5342 5340 5337 5333 5330 5326 5321 5316 5311 5304 5297 5291 5287 5282 5278 5274 5270 5266 5262 5258 5253 5249 5244 5239 5235 5232 5228 5225 5223 5220 5217 5213 5209 5205 5202 5201 5200 5195 5190
5431 5429 5428 5421 5416 5416 5419 5420 5418 5413 5412 5415 5414 5409 5405 5406 5406 5404 5403 5401 5398 5396 5394 5392 5391 5389 5388 5386 5383 5381 5378 5376 5373 5370 5368 5365 5363 5360 5357 5355 5353 5350 5347 5345 5342 5340 5337 5335 5332 5328 5325 5321 5316 5311 5306 5301 5294 5288 5282 5277 5272 5268 5264 5260 5257 5253 5248 5243 5239 5235 5230 5226 5222 5218 5215 5212 5209 5206 5203 5199 5194 5190 5189 5188 5184 5180
5424 5423 5422 5415 5408 5409 5413 5413 5410 5405 5403 5405 5407 5404 5402 5401 5399 5396 5395 5394 5392 5390 5387 5384 5383 5382 5380 5378 5376 5373 5370 5368 5365 5362 5360 5357 5354 5352 5349 5347 5345 5342 5340 5337 5335 5333 5331 5328 5324 5320 5316 5312 5307 5301 5296 5291 5285 5279 5274 5269 5264 5259 5255 5251 5247 5244 5240 5235 5231 5227 5222 5218 5214 5210 5206 5202 5199 5196 5194 5191 5187 5182 5178 5176 5174 5171